Location: Bear Trap Landing
(45.2437°N, 67.7928°W)
Time: 16:02:58
(UTC+00:00)

ISS - Visible Passes

Search period start: 23 June 2021 00:00
Search period end: 03 July 2021 00:00
Orbit: 417 x 422 km, 51.6° (Epoch: 22 June)

Date Brightness Start Highest point End Pass type
(mag) Time Alt. Az. Time Alt. Az. Time Alt. Az.
26 Jun -1.1 07:40:00 10° SSE 07:40:53 11° SE 07:41:46 10° ESE visible
28 Jun -2.3 07:39:47 12° SSW 07:42:25 28° SE 07:45:21 10° ENE visible
29 Jun -1.8 06:54:07 16° SSE 06:55:08 18° SE 06:57:29 10° E visible
30 Jun -1.1 06:08:24 11° ESE 06:08:24 11° ESE 06:08:51 10° ESE visible
30 Jun -3.7 07:41:21 14° SW 07:44:10 71° SSE 07:47:32 10° ENE visible
01 Jul -3.2 06:55:35 30° SSW 06:56:47 44° SE 07:00:01 10° ENE visible
02 Jul -2.4 06:09:46 27° SE 06:09:46 27° SE 06:12:23 10° ENE visible
02 Jul -3.1 07:42:49 10° WSW 07:46:07 53° NNW 07:49:26 10° NE visible
